Louisville Bowman, KY

9:23 PM EDT on May 25, 2017 (GMT -0400)
Bowman

Weather History for KLOU - July, 2013

Change the Weather History Date:

Sunday, July 7, 2013

  Actual Average Record
Temperature  
Mean Temperature 76 °F 78 °F  
Max Temperature 85 °F 87 °F 105 °F (2012)
Min Temperature 67 °F 69 °F 50 °F (1972)
Degree Days  
Heating Degree Days 0 0  
Month to date heating degree days 0 0  
Since 1 June heating degree days 0 3  
Since 1 July heating degree days 0 0  
Cooling Degree Days 11 13  
Month to date cooling degree days 56 91  
Year to date cooling degree days 539 543  
Since 1 June cooling degree days 353 396  
Growing Degree Days 25 (Base 50)    
Moisture  
Dew Point 65 °F    
Average Humidity 76    
Maximum Humidity 100    
Minimum Humidity 51    
Precipitation  
Precipitation 0.00 in 0.12 in 0.99 in (1964)
Month to date precipitation 1.70 0.73  
Year to date precipitation 29.03 24.79  
Sea Level Pressure  
Sea Level Pressure 30.09 in    
Wind  
Wind Speed 2 mph (SW)    
Max Wind Speed 10 mph    
Max Gust Speed 13 mph    
Visibility 10 miles    
Events      
T = Trace of Precipitation, MM = Missing Value Source: NWS Daily Summary

Daily Weather History Graph

Daily Weather History Graph

Search for Another Location

Airport or City:

Trip Planner

Search our weather history database for the weather conditions in past years. The results will help you decide how hot, cold, wet, or windy it might be!

Date:

Astronomy

Jul. 07, 2013 Rise Set
Actual Time 6:26 AM EDT 9:08 PM EDT
Civil Twilight 5:55 AM EDT 9:39 PM EDT
Nautical Twilight 5:16 AM EDT 10:18 PM EDT
Astronomical Twilight 4:32 AM EDT 11:02 PM EDT
Moon 6:00 AM EDT (7/7) 8:33 PM EDT (7/7)
Length of Visible Light 15h 44m
Length of Day
14h 42m
Waning Crescent, 0% of the Moon is Illuminated
Jul 7
Waning Crescent
Jul 8
New
Jul 15
First Quarter
Jul 22
Full
Jul 29
Last Quarter

Hourly Weather History & Observations

Time (EDT) Temp. Heat Index Dew Point Humidity Pressure Visibility Wind Dir Wind Speed Gust Speed Precip Events Conditions
12:53 AM 68.0 °F - 66.0 °F 93% 30.10 in 8.0 mi Calm Calm - N/A   Clear
1:35 AM 68.0 °F - 66.2 °F 94% 30.10 in 10.0 mi Calm Calm - N/A   Mostly Cloudy
1:53 AM 68.0 °F - 66.0 °F 93% 30.09 in 10.0 mi Calm Calm - N/A   Overcast
2:11 AM 69.8 °F - 66.2 °F 88% 30.10 in 10.0 mi Calm Calm - N/A   Overcast
2:32 AM 68.0 °F - 66.2 °F 94% 30.10 in 10.0 mi Calm Calm - N/A   Overcast
2:53 AM 68.0 °F - 66.0 °F 93% 30.08 in 10.0 mi Calm Calm - N/A   Overcast
3:03 AM 68.0 °F - 66.2 °F 94% 30.09 in 10.0 mi Calm Calm - N/A   Overcast
3:28 AM 68.0 °F - 66.2 °F 94% 30.07 in 10.0 mi Calm Calm - N/A   Scattered Clouds
3:53 AM 66.9 °F - 64.9 °F 93% 30.06 in 10.0 mi Calm Calm - N/A   Clear
4:24 AM 66.2 °F - 64.4 °F 94% 30.08 in 10.0 mi Calm Calm - N/A   Mostly Cloudy
4:49 AM 66.2 °F - 64.4 °F 94% 30.08 in 10.0 mi ESE 3.5 mph - N/A   Partly Cloudy
4:53 AM 66.9 °F - 64.9 °F 93% 30.07 in 10.0 mi East 4.6 mph - N/A   Partly Cloudy
5:53 AM 66.9 °F - 64.9 °F 93% 30.08 in 10.0 mi Calm Calm - N/A   Overcast
6:32 AM 66.2 °F - 64.4 °F 94% 30.09 in 10.0 mi Calm Calm - N/A   Overcast
6:53 AM 66.9 °F - 66.0 °F 97% 30.08 in 10.0 mi Calm Calm - N/A   Overcast
7:22 AM 68.0 °F - 66.2 °F 94% 30.11 in 10.0 mi Calm Calm - N/A   Overcast
7:32 AM 68.0 °F - 66.2 °F 94% 30.11 in 10.0 mi South 3.5 mph - N/A   Overcast
7:53 AM 68.0 °F - 66.0 °F 93% 30.10 in 10.0 mi South 3.5 mph - N/A   Mostly Cloudy
8:13 AM 68.0 °F - 66.2 °F 94% 30.12 in 10.0 mi South 3.5 mph - N/A   Mostly Cloudy
8:53 AM 70.0 °F - 66.0 °F 87% 30.12 in 10.0 mi Calm Calm - N/A   Mostly Cloudy
9:43 AM 71.6 °F - 66.2 °F 83% 30.14 in 10.0 mi South 3.5 mph - N/A   Scattered Clouds
9:51 AM 73.4 °F - 66.2 °F 78% 30.14 in 10.0 mi Variable 3.5 mph - N/A   Mostly Cloudy
9:53 AM 73.0 °F - 66.0 °F 79% 30.13 in 10.0 mi WNW 3.5 mph - N/A   Mostly Cloudy
10:06 AM 73.4 °F - 64.4 °F 73% 30.14 in 10.0 mi West 8.1 mph - N/A   Scattered Clouds
10:53 AM 75.9 °F - 64.0 °F 67% 30.12 in 10.0 mi West 5.8 mph - N/A   Scattered Clouds
11:53 AM 78.1 °F - 64.9 °F 64% 30.12 in 10.0 mi SSW 5.8 mph - N/A   Partly Cloudy
12:53 PM 79.0 °F - 66.0 °F 64% 30.11 in 10.0 mi Calm Calm - N/A   Mostly Cloudy
1:53 PM 81.0 °F 82.7 °F 64.9 °F 58% 30.10 in 10.0 mi Calm Calm - N/A   Mostly Cloudy
2:53 PM 82.0 °F 84.1 °F 66.0 °F 58% 30.09 in 10.0 mi Calm Calm - N/A   Scattered Clouds
3:53 PM 82.9 °F 85.0 °F 66.0 °F 56% 30.07 in 10.0 mi WSW 4.6 mph - N/A   Partly Cloudy
4:53 PM 84.9 °F 86.6 °F 64.9 °F 51% 30.06 in 10.0 mi West 8.1 mph - N/A   Partly Cloudy
5:53 PM 84.0 °F 85.8 °F 64.9 °F 53% 30.05 in 10.0 mi SW 5.8 mph - N/A   Mostly Cloudy
6:53 PM 84.0 °F 85.8 °F 64.9 °F 53% 30.04 in 10.0 mi West 5.8 mph - N/A   Partly Cloudy
7:53 PM 82.9 °F 84.0 °F 63.0 °F 51% 30.05 in 10.0 mi WSW 4.6 mph - N/A   Clear
8:53 PM 81.0 °F 82.2 °F 63.0 °F 54% 30.07 in 10.0 mi Calm Calm - N/A   Clear
9:53 PM 75.9 °F - 64.0 °F 67% 30.08 in 10.0 mi Calm Calm - N/A   Clear
10:53 PM 75.9 °F - 64.9 °F 69% 30.10 in 10.0 mi Calm Calm - 0.00 in   Clear
11:53 PM 73.0 °F - 66.0 °F 79% 30.10 in 10.0 mi Calm Calm - N/A   Clear